Terug naar catalogus

CZ-6A DEB

ActiefPO
NORAD 61278·DEBRIS·🇨🇳 China

Gelanceerd Aug 6, 2024 vanaf Taiyuan Satellite Launch Center

Loading…

Volgende Passages (komende 24 uur)

TLE

VersSource: Space-Track

Epoch: Sep 14, 2026, 11:27 UTC

1 61278U 24140SP  26257.47739948  .00001192  00000-0  46135-3 0  9993
2 61278  89.0073 264.5294 0013560 199.5406 160.5271 14.29446876106789

Volg CZ-6A DEB in realtime met AllMySat

Download on the App Store